sat.trackr.live / text

‹ back to catalog

ELECTRON R/B

NORAD 69179 · 2026-112C

ROCKET_BODY UNKNOWN UNKNOWN

§ Identity

Operator
Country
US
Launch date
2026-05-22
Launch site
RLLB
Launch vehicle
Mass (kg)
RCS (m²)

External: N2YO · Heavens-Above · Gunter

§ Orbital elements

Epoch: 2026-06-07T12:15:59.925600Z

Period
87.78 min
Inclination
44.8834°
Eccentricity
0.0039810
Mean motion
16.40545372 rev/d
Perigee alt
138.3 km
Apogee alt
190.4 km
Semi-major
6,542.5 km
B*
4.1966e-4
RAAN
231.9745°
Arg perigee
356.6677°
Mean anomaly
3.3977°
Rev number
255

§ Raw data

ELECTRON R/B1 69179U 26112C   26158.51111025  .16105530  11108-4  41966-3 0  99972 69179  44.8834 231.9745 0039810 356.6677   3.3977 16.40545372  2555

JSON: /api/v1/satellites/69179 · /tle

For live sub-satellite position, see the globe view (requires WebGL).

§ Visibility from observer

Set your observer location to see the next 7 days of passes ≥ 10°. The values pass through the URL so the page stays shareable.

No JS? Fill the form by hand. The geolocation button needs JavaScript.